When you browse on this site, cookies collect data to enhance your experience and personalize the content and advertising you see.
Visit our Privacy Policy to learn more. By continuing to use the site, you agree to this use of cookies and data.

Stündliche Wetter Jerewan

Heute, 6 August, Donnerstag

Zeit Temperatur Niederschläge Wind Luftdruck Luftfeuchtigkeit
00:00 +23°C° 0 mm 2 m/S 687 mmHg 50%
01:00 +21°C° 0 mm 2 m/S 687 mmHg 51%
02:00 +21°C° 0 mm 2 m/S 687 mmHg 52%
03:00 +20°C° 0 mm 2 m/S 687 mmHg 52%
04:00 +20°C° 0 mm 2 m/S 687 mmHg 53%
05:00 +21°C° 0 mm 1 m/S 687 mmHg 54%
06:00 +22°C° 0 mm 1 m/S 688 mmHg 55%
07:00 +23°C° 0 mm 1 m/S 688 mmHg 50%
08:00 +25°C° 0 mm 1 m/S 688 mmHg 44%
09:00 +27°C° 0 mm 2 m/S 688 mmHg 38%
10:00 +28°C° 0 mm 1 m/S 688 mmHg 35%
11:00 +30°C° 0 mm 1 m/S 689 mmHg 31%
12:00 +31°C° 0 mm 1 m/S 689 mmHg 28%
13:00 +32°C° 0 mm 1 m/S 689 mmHg 26%
14:00 +34°C° 0 mm 2 m/S 689 mmHg 25%
15:00 +34°C° 0 mm 2 m/S 689 mmHg 23%
16:00 +33°C° 0 mm 3 m/S 689 mmHg 27%
17:00 +33°C° 0 mm 5 m/S 689 mmHg 30%
18:00 +32°C° 0 mm 6 m/S 689 mmHg 34%
19:00 +29°C° 0 mm 6 m/S 689 mmHg 39%
20:00 +27°C° 0 mm 5 m/S 689 mmHg 43%
21:00 +26°C° 0 mm 4 m/S 690 mmHg 47%
22:00 +25°C° 0 mm 3 m/S 690 mmHg 48%
23:00 +24°C° 0 mm 3 m/S 690 mmHg 50%

Morgen, 7 August, Freitag

Zeit Temperatur Niederschläge Wind Luftdruck Luftfeuchtigkeit
00:00 +24°C° 0 mm 3 m/S 690 mmHg 51%
01:00 +23°C° 0 mm 2 m/S 690 mmHg 52%
02:00 +21°C° 0 mm 2 m/S 690 mmHg 52%
03:00 +21°C° 0 mm 2 m/S 690 mmHg 53%
04:00 +21°C° 0 mm 2 m/S 690 mmHg 53%
05:00 +21°C° 0 mm 2 m/S 691 mmHg 53%
06:00 +21°C° 0 mm 2 m/S 691 mmHg 54%
07:00 +24°C° 0 mm 2 m/S 691 mmHg 48%
08:00 +26°C° 0 mm 1 m/S 691 mmHg 43%
09:00 +27°C° 0 mm 1 m/S 691 mmHg 38%
10:00 +29°C° 0 mm 1 m/S 691 mmHg 35%
11:00 +30°C° 0 mm 1 m/S 691 mmHg 33%
12:00 +31°C° 0 mm 1 m/S 691 mmHg 31%
13:00 +32°C° 0 mm 2 m/S 691 mmHg 29%
14:00 +34°C° 0 mm 2 m/S 690 mmHg 27%
15:00 +34°C° 0 mm 2 m/S 690 mmHg 25%
16:00 +34°C° 0 mm 3 m/S 690 mmHg 27%
17:00 +33°C° 0 mm 4 m/S 690 mmHg 28%
18:00 +33°C° 0 mm 4 m/S 690 mmHg 30%
19:00 +30°C° 0 mm 4 m/S 690 mmHg 35%
20:00 +28°C° 0 mm 4 m/S 690 mmHg 39%
21:00 +26°C° 0 mm 4 m/S 690 mmHg 44%
22:00 +25°C° 0 mm 3 m/S 690 mmHg 46%
23:00 +25°C° 0 mm 2 m/S 690 mmHg 48%

übermorgen, 8 August, Samstag

Zeit Temperatur Niederschläge Wind Luftdruck Luftfeuchtigkeit
00:00 +24°C° 0 mm 2 m/S 690 mmHg 50%
01:00 +23°C° 0 mm 2 m/S 690 mmHg 51%
02:00 +22°C° 0 mm 1 m/S 689 mmHg 52%
03:00 +22°C° 0 mm 1 m/S 689 mmHg 54%
04:00 +22°C° 0 mm 1 m/S 689 mmHg 53%
05:00 +22°C° 0 mm 1 m/S 689 mmHg 53%
06:00 +22°C° 0 mm 1 m/S 690 mmHg 53%
07:00 +24°C° 0 mm 1 m/S 690 mmHg 47%
08:00 +26°C° 0 mm 1 m/S 690 mmHg 42%
09:00 +28°C° 0 mm 1 m/S 690 mmHg 37%
10:00 +30°C° 0 mm 2 m/S 689 mmHg 34%
11:00 +31°C° 0 mm 2 m/S 689 mmHg 31%
12:00 +32°C° 0 mm 2 m/S 689 mmHg 29%
13:00 +34°C° 0 mm 2 m/S 689 mmHg 26%
14:00 +35°C° 0 mm 2 m/S 688 mmHg 24%
15:00 +36°C° 0 mm 2 m/S 688 mmHg 21%
16:00 +35°C° 0 mm 2 m/S 688 mmHg 21%
17:00 +35°C° 0 mm 2 m/S 687 mmHg 22%
18:00 +35°C° 0 mm 2 m/S 687 mmHg 22%
19:00 +32°C° 0 mm 2 m/S 687 mmHg 29%
20:00 +29°C° 0 mm 3 m/S 687 mmHg 35%
21:00 +27°C° 0 mm 4 m/S 687 mmHg 41%
22:00 +26°C° 0 mm 3 m/S 687 mmHg 43%
23:00 +26°C° 0 mm 2 m/S 687 mmHg 45%

9 August, Sonntag

Zeit Temperatur Niederschläge Wind Luftdruck Luftfeuchtigkeit
00:00 +25°C° 0 mm 2 m/S 687 mmHg 47%
01:00 +24°C° 0 mm 2 m/S 687 mmHg 48%
02:00 +24°C° 0 mm 1 m/S 686 mmHg 50%
03:00 +23°C° 0 mm 1 m/S 686 mmHg 52%
04:00 +23°C° 0 mm 1 m/S 686 mmHg 52%
05:00 +23°C° 0 mm 1 m/S 686 mmHg 53%
06:00 +23°C° 0 mm 1 m/S 686 mmHg 54%
07:00 +26°C° 0 mm 1 m/S 686 mmHg 47%
08:00 +28°C° 0 mm 1 m/S 686 mmHg 41%
09:00 +30°C° 0 mm 1 m/S 687 mmHg 34%
10:00 +31°C° 0 mm 2 m/S 687 mmHg 30%
11:00 +34°C° 0 mm 2 m/S 687 mmHg 26%
12:00 +35°C° 0 mm 3 m/S 686 mmHg 23%
13:00 +36°C° 0 mm 3 m/S 686 mmHg 21%
14:00 +37°C° 0 mm 3 m/S 686 mmHg 19%
15:00 +38°C° 0 mm 3 m/S 686 mmHg 17%
16:00 +38°C° 0 mm 3 m/S 685 mmHg 18%
17:00 +37°C° 0 mm 2 m/S 685 mmHg 19%
18:00 +37°C° 0 mm 2 m/S 685 mmHg 21%
19:00 +35°C° 0 mm 3 m/S 685 mmHg 26%
20:00 +33°C° 0 mm 3 m/S 685 mmHg 32%
21:00 +30°C° 0 mm 4 m/S 685 mmHg 37%
22:00 +28°C° 0 mm 3 m/S 685 mmHg 40%
23:00 +27°C° 0 mm 2 m/S 685 mmHg 42%

10 August, Montag

Zeit Temperatur Niederschläge Wind Luftdruck Luftfeuchtigkeit
00:00 +26°C° 0 mm 2 m/S 685 mmHg 45%
01:00 +26°C° 0 mm 2 m/S 685 mmHg 47%
02:00 +25°C° 0 mm 2 m/S 685 mmHg 49%
03:00 +24°C° 0 mm 1 m/S 685 mmHg 51%
04:00 +24°C° 0 mm 1 m/S 685 mmHg 52%
05:00 +24°C° 0 mm 1 m/S 685 mmHg 52%
06:00 +24°C° 0 mm 1 m/S 685 mmHg 53%
07:00 +27°C° 0 mm 1 m/S 685 mmHg 46%
08:00 +29°C° 0 mm 1 m/S 686 mmHg 40%
09:00 +31°C° 0 mm 1 m/S 686 mmHg 34%
10:00 +33°C° 0 mm 1 m/S 686 mmHg 30%
11:00 +35°C° 0 mm 2 m/S 686 mmHg 26%
12:00 +37°C° 0 mm 2 m/S 686 mmHg 22%
13:00 +38°C° 0 mm 2 m/S 686 mmHg 20%
14:00 +39°C° 0 mm 1 m/S 685 mmHg 18%
15:00 +39°C° 0 mm 1 m/S 685 mmHg 16%
16:00 +39°C° 0 mm 2 m/S 685 mmHg 17%
17:00 +38°C° 0 mm 2 m/S 685 mmHg 19%
18:00 +38°C° 0 mm 2 m/S 685 mmHg 21%
19:00 +35°C° 0 mm 3 m/S 686 mmHg 28%
20:00 +33°C° 0 mm 4 m/S 686 mmHg 34%
21:00 +29°C° 0 mm 5 m/S 686 mmHg 41%
22:00 +28°C° 0 mm 4 m/S 686 mmHg 44%
23:00 +27°C° 0 mm 3 m/S 686 mmHg 46%

11 August, Dienstag

Zeit Temperatur Niederschläge Wind Luftdruck Luftfeuchtigkeit
00:00 +26°C° 0 mm 2 m/S 686 mmHg 48%
01:00 +26°C° 0 mm 3 m/S 686 mmHg 50%
02:00 +25°C° 0 mm 3 m/S 687 mmHg 51%
03:00 +24°C° 0 mm 3 m/S 687 mmHg 52%
04:00 +24°C° 0 mm 2 m/S 687 mmHg 53%
05:00 +24°C° 0 mm 2 m/S 687 mmHg 54%
06:00 +24°C° 0 mm 2 m/S 687 mmHg 55%
07:00 +26°C° 0 mm 2 m/S 688 mmHg 49%
08:00 +28°C° 0 mm 1 m/S 688 mmHg 43%
09:00 +30°C° 0 mm 1 m/S 688 mmHg 36%
10:00 +32°C° 0 mm 1 m/S 688 mmHg 33%
11:00 +33°C° 0 mm 1 m/S 688 mmHg 30%
12:00 +35°C° 0 mm 1 m/S 688 mmHg 26%
13:00 +36°C° 0 mm 1 m/S 688 mmHg 24%
14:00 +37°C° 0 mm 1 m/S 687 mmHg 21%
15:00 +39°C° 0 mm 1 m/S 687 mmHg 19%
16:00 +38°C° 0 mm 2 m/S 687 mmHg 21%
17:00 +37°C° 0 mm 2 m/S 687 mmHg 23%
18:00 +37°C° 0 mm 3 m/S 687 mmHg 26%
19:00 +34°C° 0 mm 3 m/S 687 mmHg 31%
20:00 +31°C° 0 mm 3 m/S 687 mmHg 37%
21:00 +29°C° 0 mm 4 m/S 688 mmHg 42%
22:00 +28°C° 0 mm 3 m/S 688 mmHg 44%
23:00 +27°C° 0 mm 3 m/S 688 mmHg 47%
Mehr zeigen